Voltar ao catálogo

COSMOS 2251 DEB

AtivoLEO
NORAD 34141·DEBRIS·🇷🇺 Russia

Lançado Jun 16, 1993 de Plesetsk Cosmodrome

Loading…

Próximas Passagens (próximas 24 horas)

TLE

AtualizadoSource: Space-Track

Época: Sep 14, 2026, 08:54 UTC

1 34141U 93036LN  26257.37143382  .00003600  00000-0  88018-3 0  9994
2 34141  74.0076 229.6337 0053336 250.5777 260.7502 14.52068901916918

Acompanhe COSMOS 2251 DEB em tempo real com AllMySat

Download on the App Store